SCP
0 0 0 1 0 0 0 0 1 1 1 2 3 3 3 2 2 1 1 0 0 0 0 0 0 0 0 0 0 0 0 0 0 0 0 0 0 0 0 0 0 0 0 0
0 0 1 1 0 0 0 1 1 1 1 2 3 3 3 2 1 1 0 0 0 0 0 0 0 0 0 0 0 0 0 0 0 0 0 0 0 0 0 0 0 0 0 0
0 1 0 0 1 1 1 1 1 2 2 3 3 3 2 2 1 1 0 0 0 0 0 0 0 0 0 0 0 0 0 0 0 0 0 0 0 0 0 0 0 0 0 0
0 0 1 1 1 1 2 2 2 2 2 2 2 2 2 1 1 1 0 0 0 0 0 0 0 0 0 0 0 0 0 0 0 0 0 0 0 0 0 0 0 0 0 0
0 0 1 1 1 1 2 2 2 2 2 2 2 1 1 1 1 1 0 0 0 0 0 0 0 0 0 0 0 0 0 0 0 0 0 0 0 0 0 0 0 0 0 0
0 0 1 1 1 1 1 1 1 2 1 1 1 1 1 1 1 0 0 0 0 0 0 0 0 0 0 0 0 0 0 0 0 0 0 0 0 0 0 0 0 0 0 0
0 0 1 1 1 1 1 1 1 1 1 1 1 1 1 1 1 0 0 0 0 0 0 0 0 0 0 0 0 0 0 0 0 0 0 0 0 0 0 0 0 0 0 0
0 0 1 1 1 1 1 1 1 1 1 1 1 1 1 1 1 0 0 0 0 0 0 0 0 0 0 0 0 0 0 0 0 0 0 0 0 0 0 0 0 0 0 0
0 0 1 1 1 1 1 1 1 1 1 1 1 1 1 1 1 0 0 0 0 0 0 0 0 0 0 0 0 0 0 0 0 0 0 0 0 0 0 0 0 0 0 0
0 0 1 1 1 1 1 1 1 1 1 1 1 1 1 1 1 0 0 0 0 0 0 0 0 0 0 0 0 0 0 0 0 0 0 0 0 0 0 0 0 0 0 0
0 0 0 0 0 0 0 1 0 0 0 0 1 1 1 1 0 0 0 0 0 0 0 0 0 0 0 0 0 0 0 0 0 0 0 0 0 0 0 0 0 0 0 0
0 0 0 0 0 0 0 0 0 0 0 0 0 1 1 1 0 0 0 0 0 0 0 0 0 0 0 0 0 0 0 0 0 0 0 0 0 0 0 0 0 0 0 0
0 0 0 0 0 0 0 0 0 0 0 0 0 1 1 0 0 0 0 0 0 0 0 0 0 0 0 0 0 0 0 0 0 0 0 0 0 0 0 0 0 0 0 0
0 0 0 0 0 0 0 0 0 0 0 0 0 0 0 0 0 0 0 0 0 0 0 0 0 0 0 0 0 0 0 0 0 0 0 0 0 0 0 0 0 0 0 0
0 0 0 0 0 0 0 0 0 0 0 0 0 0 0 0 0 0 0 0 0 0 0 0 0 0 0 0 0 0 0 0 0 0 0 0 0 0 0 0 0 0 0 0
0 0 0 0 0 0 0 0 0 0 0 0 0 0 0 0 0 0 0 0 0 0 0 0 0 0 0 0 0 0 0 0 0 0 0 0 0 0 0 0 0 0 0 0
0 0 0 0 0 0 0 0 0 0 0 0 0 0 0 0 0 0 0 0 0 0 0 0 0 0 0 0 0 0 0 0 0 0 0 0 0 0 0 0 0 0 0 0
0 0 0 0 0 0 0 0 0 0 0 0 0 0 0 0 0 0 0 0 0 0 0 0 0 0 0 0 0 0 0 0 0 0 0 0 0 0 0 0 0 0 0 0
0 0 0 0 0 0 0 0 0 0 0 0 0 0 0 0 0 0 0 0 0 0 0 0 0 0 0 0 0 0 0 0 0 0 0 0 0 0 0 0 0 0 0 0
0 0 0 0 0 0 0 0 0 0 0 0 0 0 0 0 0 0 0 0 0 0 0 0 0 0 0 0 0 0 0 0 0 0 0 0 0 0 0 0 0 0 0 0
0 0 0 0 0 0 0 0 0 0 0 0 0 0 0 0 0 0 0 0 0 0 0 0 0 0 0 0 0 0 0 0 0 0 0 0 0 0 0 0 0 0 0 0
0 0 0 0 0 0 0 0 0 0 0 0 0 0 0 0 0 0 0 0 0 0 0 0 0 0 0 0 0 0 0 0 0 0 0 0 0 0 0 0 0 0 0 0
0 0 0 0 1 0 0 0 0 0 0 0 0 0 1 0 0 0 0 0 0 0 0 0 0 0 0 0 0 0 0 0 0 0 0 0 0 0 0 0 0 0 0 0
0 0 0 0 0 0 0 0 0 0 0 0 0 0 1 1 0 0 0 0 0 0 0 0 0 0 0 0 0 0 0 0 0 0 0 0 0 0 0 0 0 0 0 0
0 0 0 0 0 0 0 0 0 0 0 0 0 0 0 1 0 0 0 0 0 0 0 0 0 0 0 0 0 0 0 0 0 0 0 0 0 0 0 0 0 0 0 0
1 1 1 1 1 1 0 0 0 0 0 0 0 0 0 0 0 0 0 0 0 0 0 0 0 0 0 0 0 0 0 0 0 0 0 0 0 0 0 0 0 0 0 0
1 1 1 1 1 1 1 0 0 0 0 0 0 0 0 0 0 0 0 0 0 0 0 0 0 0 0 0 0 0 0 0 0 0 0 0 -0 -0 0 0 0 0 0 0
Wind_Speed
8 10 9 8 8 7 7 6 5 1 3 6 9 11 13 14 13 13 12 11 10 10 9 8 7 6 6 6 6 5 6 7 6 6 6 6 6 6 6 7 8 7 8 9
9 9 7 6 6 7 5 6 5 5 7 9 11 13 12 13 13 13 12 12 11 10 9 8 7 6 6 6 5 5 6 6 6 6 6 5 5 6 6 7 7 7 9 9
7 6 7 3 4 3 4 7 7 6 7 11 11 11 12 12 12 12 12 12 11 10 9 8 7 6 6 5 5 5 6 6 6 6 6 5 6 6 6 6 6 7 7 8
7 5 4 1 4 5 6 11 10 9 9 10 11 11 10 10 12 12 13 12 11 10 9 8 7 6 5 6 6 6 6 6 6 6 6 5 5 6 5 5 5 6 6 7
4 3 2 5 8 7 5 9 9 9 9 11 13 12 9 9 11 12 12 11 10 10 9 8 7 7 6 6 6 6 6 5 6 6 6 6 5 5 4 4 5 5 5 6
6 4 1 3 6 5 1 6 6 7 8 9 9 5 7 10 12 13 12 10 10 9 9 8 6 6 6 7 6 6 5 6 6 5 5 5 4 4 3 3 4 5 5 6
5 3 3 7 9 7 3 4 5 7 8 6 2 6 13 14 14 13 12 11 10 10 8 7 6 6 6 6 6 6 6 6 5 5 5 5 3 3 3 4 4 4 5 5
4 2 3 10 8 7 5 4 6 8 9 9 12 15 15 15 14 13 12 12 11 9 8 7 6 6 6 6 6 6 6 6 4 3 4 5 3 3 3 3 3 3 3 4
4 3 3 7 8 6 5 6 7 8 10 12 13 15 15 14 14 13 12 11 9 9 8 7 6 6 7 6 5 6 6 5 4 4 4 3 2 2 2 2 2 2 2 3
4 5 5 8 8 7 7 7 8 10 11 12 14 15 15 13 12 12 11 11 9 9 9 7 6 7 6 6 6 6 6 5 3 3 3 2 1 2 2 3 3 2 2 3
3 4 6 9 8 7 7 8 10 10 11 12 14 14 14 12 12 11 10 9 9 8 8 9 8 7 7 6 6 5 5 4 4 3 4 4 5 5 5 5 5 4 5 5
4 5 4 5 5 5 6 7 9 10 11 12 13 14 13 12 10 10 10 9 9 9 9 9 9 8 7 6 6 5 4 4 4 4 3 4 5 5 7 5 6 8 7 5
4 5 5 5 5 6 6 7 9 9 11 12 12 13 12 11 10 10 10 10 10 9 10 9 9 8 7 6 5 4 3 2 2 3 4 4 4 4 4 3 3 3 3 3
3 3 3 4 5 5 6 8 9 10 11 12 12 12 12 11 11 10 10 9 9 10 10 9 9 8 7 6 5 4 4 3 2 2 2 3 3 4 4 6 5 4 3 4
2 2 3 4 5 5 6 7 9 10 11 11 11 11 12 11 11 10 10 9 9 9 9 10 9 8 7 6 5 5 4 3 2 2 3 3 3 3 3 4 4 5 6 5
2 2 4 4 5 5 6 7 9 10 10 11 11 11 11 11 10 10 10 10 9 9 9 9 8 8 8 7 6 4 2 1 1 2 3 3 3 3 3 3 3 4 5 6
1 2 4 4 5 6 6 7 8 9 10 11 11 11 11 11 10 10 9 9 9 8 8 8 8 8 8 8 7 5 5 5 4 4 4 3 3 2 2 2 2 3 3 4
1 3 3 4 5 6 7 8 9 10 10 11 12 12 11 11 11 10 10 9 9 8 8 8 8 8 9 9 6 5 5 6 6 6 4 3 2 2 3 2 3 3 4 5
1 3 4 4 5 6 7 8 9 10 11 11 12 11 11 10 10 10 10 10 10 10 9 9 9 8 8 7 6 5 6 6 6 5 3 2 3 4 4 3 3 3 3 5
1 3 4 5 5 6 7 8 9 9 10 11 11 11 10 10 10 10 10 9 8 7 9 9 9 8 8 7 7 7 7 7 7 5 5 5 5 5 5 4 4 3 3 3
2 3 4 5 5 6 7 9 10 10 10 11 12 11 11 10 11 10 9 9 8 8 10 11 8 8 8 7 8 8 8 7 7 6 6 6 6 5 5 5 4 3 3 3
1 2 3 3 5 5 6 7 9 10 11 11 12 12 11 11 11 10 10 7 8 10 10 10 10 10 9 8 9 10 9 8 7 6 6 6 5 6 5 5 4 4 4 3
0 1 2 3 4 5 6 7 9 9 10 11 11 11 11 10 9 9 9 8 9 12 11 9 10 11 11 9 9 10 10 9 8 8 7 6 6 6 6 6 5 5 4 4
0 1 2 3 4 5 6 7 8 8 9 10 10 11 10 9 8 9 8 10 11 13 11 9 12 13 12 10 10 10 10 9 9 8 8 7 7 7 7 6 6 6 5 6
2 2 3 4 5 5 6 7 8 8 9 8 10 12 10 9 9 8 8 11 13 14 11 10 14 15 12 11 11 11 10 9 9 8 8 8 8 8 7 7 7 7 7 7
2 3 3 4 4 4 5 6 7 8 8 9 9 10 10 9 10 9 8 11 14 13 12 10 12 13 12 12 12 12 11 9 9 9 9 8 9 9 8 7 9 8 7 7
4 4 4 5 5 6 6 6 6 7 8 9 9 9 10 10 10 10 11 10 11 12 12 11 11 12 13 13 13 13 11 11 10 10 10 10 10 9 9 10 8 8 8 8
Wind_Direction
271 261 258 272 278 281 288 307 319 338 121 142 137 131 132 134 137 137 136 134 130 125 117 111 106 100 97 93 87 87 87 83 80 74 66 60 54 53 54 59 62 56 55 52
279 273 272 276 295 303 315 344 5 44 69 95 113 123 129 139 145 143 142 138 133 127 125 121 118 113 105 100 101 95 90 91 88 82 77 71 64 56 56 58 60 60 59 56
286 293 290 287 333 323 355 26 29 51 89 114 119 130 142 148 149 145 141 137 136 133 131 129 128 122 116 112 110 100 94 97 94 89 84 78 76 68 61 60 63 66 70 66
290 301 275 41 360 20 63 61 55 73 87 103 114 118 128 139 141 141 138 138 136 132 129 128 126 124 122 121 114 106 101 97 93 91 91 87 83 79 69 63 67 69 69 66
295 283 298 21 5 5 30 62 53 79 92 105 114 114 109 120 129 132 132 131 130 130 130 132 134 134 130 121 115 109 105 104 106 105 100 93 85 81 75 75 79 80 76 70
281 296 351 19 328 313 91 85 59 94 111 124 142 133 129 124 122 123 123 123 126 128 131 132 131 129 124 122 122 118 113 105 103 102 98 93 90 91 90 88 89 86 79 71
282 306 57 356 332 334 33 64 64 96 109 123 119 95 126 128 125 126 126 129 132 133 131 132 134 131 128 128 126 122 114 107 102 107 112 106 99 94 93 87 87 94 98 88
339 357 27 0 16 39 50 70 84 96 102 98 99 112 124 128 130 133 134 137 136 134 133 137 139 138 130 124 126 124 119 114 115 127 121 110 109 108 106 114 119 120 126 119
38 60 57 49 59 60 63 72 82 97 105 115 120 126 129 132 135 138 139 138 139 141 139 139 142 140 132 131 133 130 123 120 119 108 95 110 132 142 155 174 163 161 156 130
69 77 71 63 65 59 63 80 91 104 115 122 125 130 133 136 138 139 140 143 145 147 144 143 146 140 134 134 132 131 130 126 124 124 119 108 81 74 63 45 29 23 84 103
66 63 70 58 53 61 73 90 100 107 117 124 131 135 137 139 142 143 144 146 149 149 145 143 144 140 137 132 132 136 142 147 144 121 102 87 71 51 60 56 50 37 30 40
39 37 49 63 58 70 87 99 108 113 120 128 134 137 138 140 142 145 147 149 152 153 150 147 146 142 139 140 140 144 154 160 149 142 142 134 123 101 62 80 84 73 64 66
47 46 62 71 67 73 93 107 113 120 128 131 133 138 140 142 147 150 151 154 155 156 150 147 148 147 147 147 150 157 156 157 163 159 163 163 158 153 146 121 73 62 60 64
68 75 84 83 81 90 105 112 116 122 129 131 134 140 142 145 150 152 152 153 153 152 150 151 152 151 150 148 152 163 169 167 191 177 174 172 175 177 173 172 175 179 202 222
62 87 109 107 106 108 121 126 128 129 133 136 140 144 148 150 152 153 152 153 154 155 156 156 155 154 157 159 168 182 191 181 193 191 194 190 198 203 192 187 178 168 165 189
65 114 140 145 139 143 149 149 143 139 144 146 147 150 152 151 151 151 154 159 163 164 159 157 156 162 167 170 179 190 179 116 241 237 213 202 208 213 202 199 189 174 169 174
197 181 169 167 169 169 169 164 153 150 152 152 152 153 153 153 154 157 162 164 166 163 161 162 165 172 175 180 197 202 188 177 213 251 244 230 222 222 221 226 203 162 145 143
218 199 187 184 179 175 174 167 158 156 156 155 156 159 162 163 166 165 164 163 166 166 169 172 175 182 186 190 205 222 201 188 201 226 233 226 242 250 245 236 210 179 160 168
194 181 178 177 178 176 177 167 161 159 159 160 162 165 167 168 167 166 168 171 175 177 178 179 178 193 198 197 206 225 226 210 206 213 216 188 232 247 245 245 236 219 199 182
153 173 173 176 182 178 174 165 161 161 162 165 166 167 170 170 170 172 177 183 186 181 172 174 180 201 208 199 213 237 235 221 211 205 208 215 225 234 238 240 239 229 226 216
144 164 172 179 179 178 173 167 166 169 170 172 173 175 176 174 177 179 185 191 184 182 175 171 187 203 211 203 201 236 246 233 220 212 218 224 224 234 241 241 239 234 232 232
112 161 171 170 172 174 170 169 173 176 175 179 181 181 179 180 185 188 196 198 182 174 180 186 197 208 210 213 215 228 238 236 235 229 223 227 230 234 237 241 243 242 239 234
46 169 180 175 176 174 173 181 184 182 182 186 187 186 186 188 192 195 196 195 190 179 192 199 197 192 193 215 232 237 238 235 235 236 228 221 231 237 239 240 243 246 243 238
282 209 204 192 186 185 186 190 187 185 188 191 192 191 192 194 199 205 205 193 188 176 198 201 183 182 193 220 233 240 239 237 238 240 238 229 228 233 235 237 241 243 243 243
268 249 218 207 203 199 191 191 190 191 195 199 198 195 199 204 205 206 205 190 179 179 199 193 183 187 202 224 233 241 241 238 239 241 239 240 240 237 234 235 238 243 246 247
255 249 223 218 215 207 199 197 197 194 198 203 204 199 202 205 207 206 204 196 188 192 206 196 191 198 215 226 232 239 243 240 236 239 244 248 252 253 250 245 245 246 249 250
236 227 215 226 217 214 212 209 208 204 204 206 207 203 202 205 207 207 208 204 193 196 209 211 204 205 215 224 231 235 238 241 242 239 238 239 243 247 249 249 250 249 249 250